Qianfan Jigui 02-10

operational
NORAD ID: 61561 Int'l Des: 2024-185 Owner: YUANX Country: CN Constellation: qianfan
LEOCIRCULARPOLAR

关于 Qianfan Jigui 02-10

正在加载描述...

实时位置

正在加载3D地球...

即将过境

高度历史

Altitude vs Time

uPlot chart will show altitude changes over time

两行轨道根数

1 61561U 24185K 26071.20535478 .00001082 00000-0 42852-3 0 9994
2 61561 88.9770 66.4402 0007485 14.8410 345.3003 14.28227762 82946
Epoch: Mar 12, 2026 • Age: 12 hours

当前状态

高度 802.6 km
速度 7.46 km/s
星下点 54.26°N, 79.08°E
发射日期 Oct 15, 2024
运行时间 1.4 years
类型 internet

技术详情

分类 Payload
质量 267.00 kg
干质量 267.00 kg
总质量 267.00 kg
长度 0.30 m
直径 3.00 m
跨度 10.00 m
形状 Box+pan
制造商 GESIH/SECM
平台类型 Qianfan
阶段状态 In Orbit
所有者/国家 YUANX/CN

大型星座

Loading constellations...